sat.trackr.live / text

‹ back to catalog

UFO 11 (USA 174)

NORAD 28117 · 2003-057A

PAYLOAD ACTIVE UNKNOWN

§ Identity

Operator
Country
US
Launch date
2003-12-18
Launch site
AFETR
Launch vehicle
Mass (kg)
RCS (m²)
10.00

Purposes: comms

External: N2YO · Heavens-Above · Gunter

§ Orbital elements

Epoch: 2026-05-24T17:50:05.757216Z

Period
1,436.08 min
Inclination
8.9369°
Eccentricity
0.0002465
Mean motion
1.00273183 rev/d
Perigee alt
35,775.8 km
Apogee alt
35,796.6 km
Semi-major
42,164.3 km
B*
0.0000e+0
RAAN
33.9479°
Arg perigee
38.1108°
Mean anomaly
153.2802°
Rev number
8,221

§ Raw data

UFO 11 (USA 174)1 28117U 03057A   26144.74312219 -.00000109  00000+0  00000+0 0  99992 28117   8.9369  33.9479 0002465  38.1108 153.2802  1.00273183 82218

JSON: /api/v1/satellites/28117 · /tle

For live sub-satellite position, see the globe view (requires WebGL).

§ Visibility from observer

Set your observer location to see the next 7 days of passes ≥ 10°. The values pass through the URL so the page stays shareable.

No JS? Fill the form by hand. The geolocation button needs JavaScript.

§ Radio — SatNOGS DB

ModeDescriptionDownlinkUplink
FM Mode U 262.325 MHz

1 transmitter · refreshed weekly from db.satnogs.org